This is the latest recevied weather packets stored in our database for station/object LU8FJH-13. If no packets are shown the sender has not sent any weather packets the latest 10 day(s).
| Time | Temp. | Humidity | Pressure | Rain* | Wind** | Luminosity | Snow |
|---|---|---|---|---|---|---|---|
| 1777545411 | 13.33° C | 66% | 1013.9 hPa | 0 mm | - | - | - |
| 1777544871 | 13.33° C | 66% | 1013.9 hPa | 0 mm | - | - | - |
| 1777544331 | 13.33° C | 66% | 1013.9 hPa | 0 mm | - | - | - |
| 1777543791 | 13.33° C | 65% | 1013.9 hPa | 0 mm | - | - | - |
| 1777543251 | 13.33° C | 65% | 1013.6 hPa | 0 mm | - | - | - |
| 1777542711 | 13.33° C | 65% | 1013.6 hPa | 0 mm | - | - | - |
| 1777542171 | 13.33° C | 64% | 1013.5 hPa | 0 mm | - | - | - |
| 1777541631 | 13.33° C | 64% | 1013.6 hPa | 0 mm | - | - | - |
| 1777541091 | 13.33° C | 63% | 1013.8 hPa | 0 mm | - | - | - |
| 1777540551 | 13.33° C | 61% | 1013.8 hPa | 0 mm | - | - | - |
| 1777540011 | 13.33° C | 59% | 1013.7 hPa | 0 mm | - | - | - |
| 1777539471 | 13.89° C | 57% | 1013.9 hPa | 0 mm | - | - | - |
| 1777538931 | 14.44° C | 56% | 1013.8 hPa | 0 mm | - | - | - |
| 1777538391 | 13.89° C | 59% | 1013.8 hPa | 0 mm | - | - | - |
| 1777537851 | 13.33° C | 64% | 1014 hPa | 0 mm | - | - | - |
| 1777537311 | 12.78° C | 66% | 1013.8 hPa | 0 mm | - | - | - |
| 1777536771 | 12.78° C | 68% | 1013.7 hPa | 0 mm | - | - | - |
| 1777536231 | 12.22° C | 68% | 1013.8 hPa | 0 mm | - | - | - |
| 1777535691 | 12.22° C | 70% | 1013.9 hPa | 0 mm | - | - | - |
| 1777535151 | 12.22° C | 72% | 1013.8 hPa | 0 mm | - | - | - |
| 1777534611 | 11.67° C | 75% | 1013.9 hPa | 0 mm | - | - | - |
| 1777534071 | 11.11° C | 75% | 1014.1 hPa | 0 mm | - | - | - |
| 1777533531 | 11.11° C | 75% | 1013.9 hPa | 0 mm | - | - | - |
| 1777532991 | 11.67° C | 74% | 1014.1 hPa | 0 mm | - | - | - |
| 1777532451 | 11.67° C | 75% | 1014 hPa | 0 mm | - | - | - |
* Rain latest hour (hover to see other rain measurements)
** Current wind speed in m/s (hover to see current wind gust speed)